Wind_Speed
21 21 21 21 20 20 19 18 18 17 17 15 13 14 14 13 12 12 16 25 31 32 34 35 35 37 39 41 43 44 48 49 51 53 54 54 53 52 51 50 48 47 45 43
23 21 22 23 24 23 21 19 20 19 19 17 16 15 15 15 12 10 11 14 21 30 33 34 35 35 35 37 39 41 42 44 45 47 48 50 51 50 48 45 44 44 43 42
27 27 26 26 24 25 25 24 21 20 20 22 18 16 16 15 15 13 12 11 13 18 27 32 34 34 33 34 37 39 41 41 41 42 44 45 45 44 43 41 42 42 43 44
33 33 33 32 30 27 27 24 24 23 22 24 23 19 17 17 17 17 14 13 11 10 16 24 31 33 32 32 34 36 37 39 40 41 42 42 41 41 39 40 41 42 43 44
40 40 40 39 38 37 31 31 29 27 25 26 26 25 17 20 19 19 19 17 14 13 11 12 17 22 26 29 31 33 36 37 38 40 42 41 40 38 38 39 41 43 46 47
46 47 46 46 45 44 42 38 35 33 32 28 28 28 25 23 23 23 22 23 22 21 18 15 14 15 18 22 27 29 31 34 35 37 38 39 38 36 38 40 42 44 48 51
50 50 50 51 50 49 47 46 44 40 38 36 33 29 31 29 27 27 26 26 27 28 27 25 21 20 20 21 22 25 29 32 34 35 36 38 37 37 41 44 46 47 49 52
57 57 56 54 54 53 52 51 50 48 47 44 39 36 37 34 35 30 30 30 30 29 32 33 31 30 28 27 27 28 30 31 33 35 38 40 41 44 49 50 50 51 54 57
62 63 63 63 60 58 58 58 56 54 53 53 47 43 42 42 41 38 34 32 33 33 33 35 38 39 37 36 37 35 33 35 36 37 39 40 42 45 50 55 57 56 58 61
61 66 69 69 67 65 64 64 64 63 61 59 56 53 48 48 48 45 41 40 38 38 39 40 40 41 43 43 42 43 44 42 40 40 42 43 45 50 56 58 59 59 60 62
68 65 68 73 73 71 70 70 69 70 69 68 64 59 58 56 54 51 48 46 46 46 45 46 45 46 46 46 46 48 49 49 49 48 48 48 47 51 59 63 66 65 64 63
77 71 67 70 72 74 74 74 75 75 74 74 73 67 65 63 61 59 56 53 53 53 52 52 50 52 50 50 49 49 50 53 52 52 53 53 53 54 59 68 71 70 70 68
75 73 72 72 72 74 76 78 79 80 80 78 78 74 73 71 69 66 63 62 61 60 60 59 58 56 55 56 55 55 53 53 55 56 56 56 56 58 61 67 74 76 76 74
76 75 77 75 73 77 80 84 84 84 84 84 83 79 78 76 75 72 69 68 69 68 68 67 66 64 62 60 59 60 59 57 56 57 59 60 60 61 64 70 76 79 84 82
83 82 82 79 76 74 74 75 80 86 90 87 88 87 83 82 79 77 76 75 75 75 75 75 73 71 69 68 66 64 63 64 62 61 60 62 65 64 66 69 75 81 87 89
82 82 81 76 76 74 72 70 71 75 79 89 91 89 86 86 86 83 82 82 82 81 81 80 80 78 76 73 72 72 71 69 69 68 67 66 65 68 69 69 73 80 85 91
86 84 80 76 80 77 69 67 69 70 75 81 84 88 89 89 90 90 89 87 85 85 85 84 84 84 83 81 78 78 78 76 74 73 73 72 72 71 70 72 74 76 83 89
88 86 84 81 82 80 75 71 72 73 74 77 82 84 87 91 92 93 93 93 91 89 89 88 88 88 88 87 85 82 81 81 81 80 78 77 78 79 78 76 76 78 80 84
90 90 89 86 82 78 75 75 76 78 78 78 80 82 85 88 91 95 97 97 98 96 94 93 92 90 90 90 90 89 87 86 86 84 84 84 83 82 83 84 84 84 82 83
90 89 86 83 81 78 76 78 80 80 82 82 84 85 86 89 90 94 96 99 102 102 102 100 99 98 97 96 95 95 95 94 92 92 91 90 89 89 89 89 89 90 90 90
88 85 83 83 83 82 80 81 82 80 80 81 83 86 88 91 92 94 96 99 100 103 105 106 105 105 106 103 102 100 100 100 99 98 98 97 97 96 96 95 96 96 96 96
87 86 84 84 82 80 79 79 81 79 77 78 80 82 84 88 93 97 99 101 102 103 105 107 107 109 110 111 110 109 107 106 105 105 105 105 106 105 104 103 102 103 103 103
90 87 84 82 79 79 78 77 77 77 78 79 80 81 82 86 90 95 100 104 106 106 105 106 108 110 111 113 115 116 117 116 114 113 112 113 113 113 113 111 111 110 109 110
87 85 81 80 78 79 80 81 77 77 81 82 84 85 86 86 87 91 96 99 103 106 108 109 109 110 111 113 116 118 120 122 123 123 121 121 120 120 119 119 118 117 115 115
89 85 84 78 80 82 83 86 84 83 83 82 84 85 87 88 88 87 89 91 95 99 103 106 108 110 112 114 117 118 119 120 122 125 127 129 128 128 128 126 126 125 125 125
90 88 84 82 90 85 84 86 86 85 85 85 86 87 87 87 87 87 87 87 88 90 91 93 96 101 105 110 114 118 121 123 124 125 125 126 127 129 130 132 132 131 130 131
Wind_Direction
306 311 315 319 318 309 297 293 295 289 302 299 317 310 321 324 307 284 261 251 247 244 242 242 241 241 240 240 242 243 242 242 242 243 245 247 248 248 250 251 251 251 249 246
300 303 306 312 315 315 314 301 290 294 294 307 302 311 305 309 315 309 288 265 250 245 242 242 242 242 240 238 238 239 240 241 241 243 245 246 247 248 248 249 249 247 244 237
294 295 295 301 305 306 309 313 311 304 298 291 295 295 301 296 302 310 315 297 275 256 243 239 240 240 238 237 236 238 238 239 239 241 242 243 245 247 247 246 243 238 234 231
292 293 293 294 296 300 300 302 305 307 302 294 287 283 289 291 287 286 294 297 299 272 259 248 242 240 240 237 235 235 236 239 238 238 238 239 240 242 242 240 238 234 230 227
284 287 288 290 291 291 292 294 294 294 294 296 294 287 272 280 277 276 271 276 274 285 274 257 251 248 245 241 238 234 235 234 236 239 238 238 238 238 237 237 234 229 225 222
288 287 287 286 285 286 287 285 287 287 288 285 287 293 289 267 270 268 270 263 260 259 259 261 254 256 256 249 245 239 236 238 236 235 239 237 236 236 236 232 228 223 219 217
284 284 286 285 284 283 282 281 281 281 280 281 281 280 282 283 270 260 260 264 260 256 255 254 252 247 249 251 250 245 237 237 235 233 233 235 235 235 232 226 225 222 221 218
288 286 284 282 281 280 278 278 277 275 276 274 273 276 273 274 275 272 259 256 257 260 257 257 255 251 246 245 249 245 239 238 235 232 234 228 229 227 224 223 222 221 220 216
288 287 286 285 282 279 277 276 275 275 273 271 270 268 270 271 269 271 273 266 256 255 256 257 255 254 252 248 246 246 244 241 241 238 236 238 239 234 227 222 222 222 222 221
285 283 283 284 283 282 278 274 273 271 269 269 267 266 265 267 268 270 268 268 267 257 249 248 251 255 254 250 247 248 247 245 242 244 242 242 240 233 228 226 223 223 223 222
290 289 285 281 282 280 278 276 273 271 269 266 264 263 261 262 265 266 266 263 260 260 259 251 247 247 250 253 250 246 248 248 247 245 245 246 243 238 232 227 225 226 226 225
292 287 282 280 278 276 276 275 274 270 268 266 263 261 259 259 259 261 262 263 262 259 256 257 254 249 247 247 250 249 246 246 247 246 244 245 245 242 236 231 229 229 228 227
288 286 282 278 274 269 268 269 268 267 266 265 264 262 258 256 256 258 259 260 260 258 257 253 253 254 251 248 248 248 249 246 245 245 245 243 244 244 239 236 232 231 230 231
285 282 281 278 276 271 271 267 266 266 266 264 264 262 260 257 256 255 255 255 256 257 255 254 254 251 250 251 248 247 247 247 246 245 244 243 243 242 242 239 236 234 232 233
287 283 282 282 278 276 272 270 269 267 265 265 264 262 261 259 257 255 253 252 251 253 254 254 252 252 251 248 250 250 247 247 246 245 244 243 243 243 242 241 240 238 237 236
289 286 284 285 282 279 276 273 268 264 262 262 262 262 262 261 258 255 254 252 251 249 249 251 253 254 252 251 248 247 249 248 246 246 245 244 244 244 243 243 243 241 240 239
290 288 288 287 286 283 279 275 271 266 264 261 258 258 258 259 257 256 254 253 252 250 250 249 250 251 253 253 250 248 247 247 248 247 246 246 245 245 244 244 244 244 243 242
290 290 289 286 285 283 281 276 272 268 266 263 261 258 256 256 257 257 256 256 254 252 252 250 249 248 249 251 252 250 248 248 247 247 248 248 247 246 245 245 245 245 245 245
289 289 288 286 284 281 279 277 272 269 266 263 261 260 258 255 254 253 254 254 254 251 250 250 248 246 248 249 251 253 253 251 249 248 248 247 248 248 248 248 247 246 247 247
288 288 287 285 283 280 278 275 272 269 268 265 262 259 257 256 254 253 252 253 252 252 251 248 246 246 246 246 248 250 252 253 252 250 249 249 248 247 247 248 249 248 248 247
289 287 286 285 283 281 279 275 272 268 265 263 262 260 258 256 255 254 253 252 252 253 252 251 248 247 247 247 247 248 250 251 251 251 251 250 250 250 249 249 249 249 249 248
289 288 286 286 284 282 277 274 273 271 268 265 263 261 260 258 256 255 254 253 253 251 251 252 252 251 248 248 248 248 249 250 251 251 252 252 252 251 250 251 250 250 249 249
291 289 287 286 283 279 277 276 275 273 272 268 265 262 258 256 254 254 254 253 253 253 254 253 252 252 251 250 250 249 248 249 250 250 251 252 253 254 254 253 251 251 252 251
290 286 284 282 280 278 278 275 273 271 268 267 266 264 262 261 257 254 253 252 253 254 253 254 254 254 254 254 254 252 250 250 251 252 252 252 253 253 253 254 254 254 253 252
287 286 284 285 282 279 279 277 276 272 270 268 267 265 265 264 263 261 259 257 256 255 255 255 254 255 255 255 256 255 256 255 254 253 253 253 253 253 253 254 253 254 254 253
285 285 286 286 282 281 279 277 275 272 271 269 266 264 263 262 262 262 261 260 259 259 259 258 257 256 256 256 256 256 256 256 256 256 256 255 254 254 253 254 254 254 254 254
Height
10792 10790 10788 10785 10783 10780 10778 10776 10773 10771 10766 10764 10761 10758 10757 10755 10752 10750 10749 10748 10748 10749 10750 10750 10752 10753 10756 10758 10762 10766 10769 10775 10780 10785 10790 10794 10798 10801 10805 10808 10811 10814 10817 10820
10788 10787 10784 10782 10780 10778 10775 10773 10771 10767 10762 10760 10758 10757 10755 10754 10751 10748 10745 10744 10742 10741 10742 10743 10745 10747 10750 10752 10754 10758 10762 10765 10771 10776 10780 10784 10786 10790 10793 10798 10801 10804 10807 10810
10784 10782 10780 10778 10776 10774 10772 10768 10766 10763 10760 10756 10755 10755 10753 10752 10749 10746 10744 10741 10739 10737 10737 10737 10739 10741 10743 10746 10749 10752 10755 10758 10762 10766 10769 10773 10776 10781 10784 10788 10790 10793 10796 10800
10778 10776 10774 10772 10771 10770 10768 10765 10763 10760 10757 10753 10752 10752 10750 10748 10746 10745 10743 10741 10737 10735 10734 10734 10735 10736 10738 10740 10742 10745 10748 10751 10755 10757 10760 10763 10768 10771 10775 10778 10780 10783 10787 10792
10770 10768 10766 10765 10764 10762 10762 10760 10758 10756 10753 10750 10747 10746 10749 10744 10742 10740 10740 10740 10738 10735 10733 10732 10732 10733 10734 10735 10737 10739 10741 10743 10747 10750 10753 10756 10759 10764 10766 10769 10772 10776 10780 10785
10761 10760 10758 10756 10755 10754 10753 10752 10751 10749 10748 10745 10744 10741 10741 10740 10738 10736 10735 10735 10734 10733 10732 10731 10731 10730 10729 10730 10732 10733 10735 10738 10741 10743 10747 10750 10753 10757 10759 10762 10766 10770 10774 10779
10751 10749 10748 10746 10744 10743 10743 10742 10741 10741 10740 10738 10738 10737 10732 10732 10732 10732 10731 10729 10728 10727 10727 10727 10728 10728 10727 10726 10727 10728 10730 10732 10734 10736 10739 10743 10747 10751 10753 10756 10759 10764 10768 10773
10738 10737 10735 10734 10733 10732 10730 10730 10729 10729 10728 10728 10730 10730 10725 10723 10722 10724 10725 10724 10722 10721 10721 10721 10721 10722 10722 10722 10723 10724 10725 10726 10727 10728 10730 10733 10736 10741 10745 10750 10754 10758 10761 10766
10724 10722 10720 10719 10718 10718 10718 10716 10715 10715 10714 10713 10718 10719 10716 10713 10711 10714 10716 10716 10717 10716 10714 10712 10712 10712 10714 10715 10716 10716 10718 10720 10721 10722 10724 10727 10731 10734 10736 10739 10744 10749 10753 10758
10709 10708 10703 10702 10701 10700 10700 10699 10698 10697 10697 10697 10702 10704 10706 10702 10702 10703 10705 10705 10706 10706 10705 10703 10702 10701 10702 10704 10707 10707 10709 10711 10713 10715 10717 10718 10721 10724 10728 10733 10737 10741 10744 10748
10691 10692 10686 10682 10681 10680 10679 10678 10677 10676 10678 10678 10683 10688 10689 10691 10690 10691 10691 10692 10691 10690 10691 10692 10692 10691 10690 10691 10694 10697 10698 10700 10702 10705 10708 10710 10712 10714 10718 10721 10725 10729 10735 10739
10671 10672 10669 10661 10661 10658 10657 10656 10655 10655 10655 10654 10659 10669 10671 10672 10673 10674 10676 10677 10676 10676 10677 10677 10678 10679 10680 10679 10680 10682 10685 10687 10689 10691 10694 10697 10700 10703 10705 10709 10713 10718 10721 10726
10652 10651 10648 10644 10640 10636 10634 10633 10629 10630 10631 10633 10632 10642 10646 10651 10654 10657 10660 10659 10658 10658 10659 10659 10660 10662 10665 10667 10668 10669 10671 10674 10676 10677 10679 10682 10685 10689 10691 10695 10699 10704 10708 10712
10628 10627 10622 10620 10618 10617 10612 10609 10608 10607 10606 10608 10610 10616 10620 10626 10632 10636 10640 10639 10637 10636 10637 10640 10642 10644 10648 10650 10652 10654 10656 10658 10660 10663 10665 10666 10669 10672 10676 10679 10683 10687 10692 10696
10603 10602 10597 10594 10591 10590 10589 10588 10585 10584 10582 10583 10585 10588 10595 10599 10604 10610 10613 10615 10615 10614 10614 10615 10619 10624 10627 10631 10634 10637 10639 10642 10643 10646 10648 10650 10652 10654 10658 10661 10665 10670 10674 10678
10580 10574 10571 10570 10562 10561 10562 10564 10561 10558 10555 10553 10558 10561 10567 10573 10576 10580 10585 10586 10588 10590 10591 10593 10596 10601 10606 10611 10614 10616 10619 10622 10624 10627 10630 10633 10636 10638 10640 10643 10646 10650 10654 10659
10554 10550 10549 10546 10535 10530 10538 10539 10534 10533 10529 10525 10529 10536 10541 10542 10544 10549 10553 10558 10563 10567 10569 10571 10574 10577 10580 10584 10591 10594 10597 10601 10604 10607 10610 10614 10617 10619 10622 10625 10627 10629 10633 10637
10524 10521 10519 10519 10511 10507 10508 10510 10507 10504 10504 10502 10501 10505 10512 10517 10518 10520 10525 10530 10536 10541 10545 10548 10550 10552 10554 10558 10562 10571 10575 10578 10582 10585 10590 10593 10596 10598 10600 10604 10606 10609 10612 10614
10499 10493 10488 10485 10483 10482 10484 10481 10476 10473 10475 10478 10476 10477 10480 10484 10490 10491 10495 10499 10503 10509 10514 10519 10523 10527 10530 10533 10538 10543 10548 10554 10557 10561 10565 10568 10572 10575 10578 10581 10584 10587 10590 10592
10471 10464 10459 10454 10453 10453 10454 10448 10446 10446 10445 10449 10447 10448 10449 10451 10455 10460 10466 10467 10471 10474 10480 10488 10494 10499 10503 10506 10510 10516 10519 10522 10527 10533 10537 10540 10543 10548 10551 10554 10557 10560 10564 10568
10441 10436 10431 10426 10423 10422 10420 10415 10411 10416 10417 10416 10417 10417 10420 10422 10425 10428 10431 10435 10439 10442 10447 10453 10461 10469 10473 10478 10483 10488 10491 10493 10497 10501 10506 10511 10514 10518 10521 10525 10528 10531 10534 10538
10411 10406 10405 10399 10394 10390 10387 10386 10382 10383 10387 10389 10388 10389 10390 10392 10393 10395 10397 10399 10403 10408 10413 10417 10426 10433 10440 10446 10453 10459 10461 10465 10469 10473 10475 10477 10480 10485 10490 10494 10499 10501 10504 10508
10382 10375 10371 10368 10366 10358 10358 10359 10358 10358 10357 10356 10354 10356 10358 10359 10359 10360 10362 10365 10368 10372 10379 10384 10390 10397 10401 10408 10415 10421 10425 10430 10435 10438 10443 10445 10447 10450 10454 10460 10466 10470 10471 10475
10348 10341 10345 10341 10337 10332 10329 10325 10331 10332 10327 10325 10324 10324 10325 10326 10327 10329 10330 10332 10335 10340 10345 10351 10356 10362 10367 10370 10373 10379 10387 10392 10398 10402 10407 10411 10414 10417 10420 10423 10428 10433 10437 10440
10309 10312 10311 10317 10310 10306 10302 10295 10297 10295 10295 10297 10298 10296 10295 10297 10299 10302 10304 10306 10308 10311 10315 10319 10324 10328 10333 10335 10337 10339 10345 10351 10357 10361 10365 10369 10376 10380 10382 10385 10389 10393 10397 10399
10283 10283 10288 10293 10270 10274 10271 10264 10263 10263 10263 10264 10264 10264 10264 10267 10269 10271 10274 10277 10279 10281 10284 10287 10291 10294 10297 10300 10300 10301 10305 10308 10312 10316 10319 10323 10328 10334 10341 10346 10349 10352 10357 10358